Wind_Speed
3 2 2 3 5 6 7 7 7 7 6 4 4 5 5 5 6 5 2 0 4 6 8 9 10 12 12 13 13 12 11 8 6 6 8 8 8 8 7 7 5 3 2 2 7 11 11 10 10
3 2 1 3 6 7 8 8 7 6 6 5 6 6 6 5 4 3 2 1 1 4 6 7 9 11 12 13 14 14 11 9 7 7 7 7 8 8 8 8 6 4 3 1 2 5 6 6 7
3 1 1 2 6 8 8 8 6 6 5 6 8 8 7 5 4 3 2 1 2 2 3 5 7 10 11 13 15 15 13 10 8 8 7 7 8 8 8 9 8 6 5 4 3 3 4 6 7
2 1 3 4 7 10 10 8 5 4 5 6 8 9 9 8 5 4 2 2 3 3 4 5 8 10 11 13 14 16 15 11 9 9 8 7 7 8 8 8 8 8 7 6 6 6 6 7 8
2 2 4 5 9 11 12 11 9 7 7 7 8 9 10 10 8 5 4 4 4 5 6 7 9 11 13 13 15 17 16 12 10 10 10 9 8 7 8 8 9 10 10 10 10 9 9 9 9
1 3 5 6 9 11 12 12 12 12 12 11 11 10 10 10 9 8 6 5 5 6 8 10 12 14 15 14 15 17 17 14 12 10 10 10 9 8 9 10 11 11 12 13 13 12 11 11 11
2 2 3 5 8 11 11 12 13 13 13 13 12 11 10 11 10 8 7 6 5 6 9 12 13 15 16 15 15 18 18 15 13 12 11 9 8 9 10 11 12 12 12 13 14 14 13 13 13
6 5 4 5 8 11 12 12 13 13 13 15 15 13 12 12 11 9 8 7 6 6 10 12 13 15 16 15 14 17 18 17 14 13 13 11 9 9 10 11 11 11 11 12 14 15 14 14 13
10 10 9 9 10 13 14 15 15 14 14 15 15 14 12 11 10 9 7 6 6 8 11 13 14 16 16 15 14 16 18 17 14 13 14 13 12 10 9 9 10 10 11 12 13 14 14 15 15
13 13 12 13 14 15 15 15 16 17 17 16 15 13 11 9 7 6 5 7 8 11 13 15 16 17 18 17 15 16 17 16 15 14 14 14 13 11 9 9 9 10 11 12 13 13 13 15 16
16 15 14 15 16 17 17 16 17 18 19 18 16 13 9 6 5 5 7 9 10 12 15 16 18 19 20 19 18 16 16 16 16 15 14 14 13 12 10 8 10 10 11 12 12 12 12 13 14
18 17 16 17 18 18 20 20 20 19 19 18 15 12 9 7 7 7 9 12 13 15 17 18 20 21 22 22 21 19 17 15 15 15 13 12 12 12 10 9 9 10 11 12 12 11 11 11 12
21 20 18 19 21 20 22 23 22 22 20 20 16 12 10 10 10 10 12 14 15 16 18 20 21 22 23 23 23 22 18 16 14 14 12 10 11 12 11 10 9 10 11 12 12 10 9 8 9
24 22 21 21 23 23 24 24 23 21 19 20 18 14 13 13 13 13 13 14 15 17 19 21 22 24 24 24 25 23 20 16 12 12 12 11 11 12 12 11 10 11 12 13 12 10 8 6 6
27 25 23 24 26 27 27 25 24 21 19 20 18 16 14 14 14 14 13 14 15 16 18 20 22 24 25 25 24 22 20 16 12 11 12 12 11 13 13 13 12 12 12 13 12 10 9 6 5
30 28 26 27 29 29 28 23 23 22 20 20 18 17 16 16 15 15 15 15 16 17 18 19 21 24 24 24 22 20 18 16 14 12 12 12 12 13 14 14 13 13 13 13 13 12 11 8 6
32 31 30 30 31 31 26 22 22 23 21 20 18 18 18 18 17 17 17 17 17 18 18 19 21 23 24 22 18 15 13 14 14 13 12 12 13 13 14 15 14 14 14 15 14 13 12 9 7
35 34 33 32 33 30 25 21 21 23 22 20 19 20 20 21 21 21 20 19 18 17 18 20 21 23 22 19 16 14 14 15 15 14 13 12 13 13 15 16 16 15 15 16 16 14 13 11 8
36 35 34 34 34 32 27 23 20 20 22 22 21 23 24 23 23 23 22 21 19 18 19 20 21 22 22 20 18 17 17 17 17 16 15 15 15 16 17 18 18 18 18 17 17 15 15 13 10
35 35 34 33 33 31 27 23 19 19 21 23 23 25 25 24 23 23 23 22 21 20 20 21 21 22 22 21 20 19 19 19 19 18 18 18 19 20 21 23 23 22 21 20 19 18 17 16 13
32 31 31 31 30 30 27 23 20 20 23 25 25 25 25 25 24 25 25 23 22 21 21 21 22 22 21 21 21 21 21 21 21 20 21 21 22 23 24 25 27 26 25 23 22 20 19 18 16
30 28 28 26 27 26 26 24 21 23 25 25 24 25 26 26 26 27 27 23 22 22 22 22 21 21 21 22 23 24 24 23 22 22 22 22 22 24 25 27 28 29 29 27 25 22 21 21 19
27 27 27 26 26 25 25 26 23 25 26 24 24 25 26 27 27 28 27 24 23 23 23 22 21 21 21 22 24 24 23 22 22 23 23 23 23 23 24 26 29 30 31 30 28 26 25 24 22
25 25 26 26 25 25 23 26 25 24 25 24 24 25 26 27 28 29 27 26 25 24 24 24 23 22 22 22 21 21 20 20 21 22 24 24 23 22 22 24 27 30 32 32 31 29 28 27 26
22 23 24 25 25 24 23 24 26 24 24 25 25 26 26 27 28 28 27 27 27 27 26 25 24 23 21 20 19 19 18 18 19 20 21 22 20 20 21 24 27 30 32 33 32 31 31 30 28
23 24 25 25 24 24 24 25 26 25 24 25 26 26 27 28 28 28 27 27 27 27 26 25 24 22 20 18 17 17 16 16 16 17 18 19 18 17 19 23 26 29 32 32 32 31 32 30 30
25 25 25 26 26 26 26 26 25 25 25 26 27 28 29 29 28 27 26 26 26 26 25 23 21 20 18 16 15 15 15 15 15 15 16 16 16 16 17 19 23 26 28 31 32 32 32 31 31
27 27 27 27 28 29 28 27 26 25 26 27 28 28 27 27 27 26 26 26 26 25 23 21 19 18 17 15 14 13 13 14 15 16 16 17 17 17 19 20 19 22 24 27 29 32 32 32 32
28 28 28 28 29 29 29 26 24 24 24 25 26 27 27 27 27 26 25 25 25 25 23 21 19 18 17 16 15 14 14 15 16 16 17 18 18 19 20 20 21 23 25 27 30 32 33 32 32
33 31 30 30 29 28 28 26 23 23 24 26 28 29 28 27 25 24 23 24 25 24 23 20 18 18 18 18 17 17 17 18 18 18 19 19 20 20 20 21 22 23 24 26 28 30 32 32 33
Wind_Direction
164 150 107 73 40 31 25 19 14 8 357 339 319 313 304 288 280 282 268 16 65 64 60 46 25 12 2 356 354 351 354 360 358 347 338 329 318 304 295 294 301 306 316 208 209 211 202 199 204
148 141 108 69 35 23 26 21 18 17 4 338 324 318 314 307 294 273 239 261 47 62 57 41 21 9 358 351 348 344 344 348 346 340 336 330 320 300 287 285 283 278 271 239 199 199 185 188 205
137 81 13 28 23 18 21 20 17 10 2 340 326 320 319 316 293 263 246 282 350 21 32 26 9 359 352 347 344 341 339 336 335 330 325 319 324 309 289 283 276 265 251 237 227 221 209 207 213
145 49 14 17 25 19 14 11 12 3 356 338 324 319 315 311 299 269 253 316 347 352 357 2 355 349 344 342 341 338 337 330 319 319 315 303 310 311 297 285 273 263 251 239 235 236 234 229 226
147 57 36 41 30 19 12 5 4 0 351 337 324 316 310 303 293 277 278 307 329 341 351 350 347 344 340 340 341 338 335 328 316 312 308 295 291 296 291 281 273 263 252 242 236 237 239 239 236
89 49 61 34 17 12 6 2 2 358 348 334 321 311 302 295 286 276 280 298 318 338 351 351 347 346 343 338 337 337 334 326 317 311 303 292 287 287 282 276 269 260 250 242 238 238 241 241 237
293 1 28 12 1 356 352 355 1 355 342 331 321 312 301 287 279 272 272 283 301 333 348 352 348 348 345 338 332 333 330 324 316 307 297 288 286 291 291 280 268 260 250 241 238 239 241 240 236
278 297 317 330 334 336 337 342 352 355 345 333 325 319 309 290 281 277 272 275 291 320 340 344 348 348 344 336 329 328 326 322 315 305 294 286 283 292 298 287 270 260 250 240 238 239 237 236 233
272 284 294 304 312 320 325 330 339 350 348 339 329 324 317 300 285 275 267 274 295 316 334 339 343 347 345 335 324 323 322 319 314 306 293 285 280 282 289 287 270 257 247 241 241 241 239 236 234
264 276 289 298 304 313 319 321 328 342 347 342 331 325 317 304 287 272 274 287 301 317 331 337 339 341 341 335 323 318 318 313 309 306 295 283 276 273 275 278 266 253 242 239 243 246 246 241 238
261 270 281 289 295 304 314 318 321 333 340 337 328 318 306 290 278 279 286 294 305 320 331 336 334 334 334 331 322 314 313 309 305 304 298 284 272 264 260 264 260 248 239 239 244 248 247 243 238
263 268 273 280 287 296 307 312 312 317 325 329 321 309 290 269 264 275 289 301 312 321 327 333 333 332 331 327 321 317 312 310 304 302 299 284 268 255 247 248 249 237 236 240 243 246 247 244 240
260 266 270 277 283 291 299 305 303 302 311 317 312 297 281 269 269 277 289 299 308 317 324 329 332 332 328 322 316 315 314 310 305 300 297 284 267 250 241 237 237 232 235 241 244 245 244 249 248
258 264 269 274 278 286 293 297 296 292 297 304 301 288 276 270 270 277 285 296 304 313 321 325 329 332 326 318 313 312 312 310 300 297 294 284 269 254 244 234 232 229 232 238 243 238 233 241 255
259 264 268 273 279 284 288 290 285 282 288 295 291 280 271 267 269 273 278 287 297 308 315 321 326 329 325 319 312 308 306 304 301 296 289 281 271 259 248 234 230 225 226 233 235 235 234 242 261
259 263 268 273 279 285 285 278 277 275 279 286 282 274 269 268 270 272 276 285 294 303 311 318 323 323 320 317 311 306 303 298 298 296 287 277 269 258 247 235 230 225 223 228 231 238 240 242 257
258 263 267 273 280 285 284 272 271 273 274 280 277 272 272 274 274 275 278 283 290 300 309 315 319 319 317 314 309 304 301 300 301 297 292 275 265 255 246 238 232 227 225 229 231 240 240 237 243
259 262 265 270 277 281 280 273 268 269 273 280 279 275 274 275 276 278 280 282 288 299 307 312 314 313 311 307 304 302 300 302 302 299 291 276 268 257 246 241 235 230 227 229 233 237 235 233 227
258 262 266 271 274 275 273 269 261 259 267 275 278 277 276 276 277 279 280 283 290 298 303 307 309 307 301 297 295 294 296 298 296 295 291 280 273 266 254 243 238 234 230 229 230 232 233 231 222
259 263 267 268 269 270 268 259 250 254 264 272 277 278 279 279 280 280 280 283 289 296 301 305 306 303 296 290 288 288 289 290 288 287 285 280 272 270 264 250 240 237 232 227 226 228 233 231 222
261 263 265 265 267 269 264 250 252 261 268 274 276 276 277 279 280 282 281 284 290 295 300 303 304 302 296 290 287 287 286 283 279 275 276 276 273 269 264 252 242 236 231 227 226 228 235 233 226
259 260 262 264 264 262 260 251 251 265 271 274 273 271 273 278 281 283 282 285 291 294 297 299 300 298 295 291 289 287 284 279 273 270 270 273 272 266 260 249 241 235 231 229 227 229 234 231 229
255 255 257 258 258 257 255 257 255 264 269 271 270 267 269 274 278 280 283 287 291 293 295 295 294 292 291 289 287 285 281 275 270 267 267 271 271 265 257 246 237 234 233 230 228 228 230 230 231
249 249 250 252 255 254 255 261 266 266 267 267 265 264 267 271 275 280 287 290 293 295 296 294 292 289 288 287 286 284 280 275 268 265 265 268 269 263 252 242 236 234 233 230 228 228 229 230 231
243 244 246 249 253 256 258 260 266 267 266 268 269 268 270 274 279 286 291 294 298 299 299 295 293 289 286 285 284 282 279 273 268 266 267 269 268 261 250 244 240 236 233 230 226 226 228 230 234
243 244 249 253 252 255 257 259 264 267 268 271 273 275 277 280 284 289 294 300 303 303 301 296 291 286 283 283 283 280 276 272 271 271 272 271 268 261 256 254 245 238 233 229 225 223 226 230 234
241 246 251 256 257 258 259 262 265 268 269 271 273 276 279 282 286 291 298 304 304 305 306 300 290 284 284 286 287 283 279 275 275 276 278 276 272 265 259 261 252 239 232 228 225 225 228 232 234
239 242 246 251 257 259 260 263 267 268 269 272 274 276 279 283 289 295 300 302 301 302 304 302 290 284 286 290 293 291 284 278 277 278 279 280 275 268 263 260 253 241 234 231 231 230 232 235 236
244 246 249 255 260 263 264 264 269 275 276 276 276 277 280 286 290 295 297 298 298 301 301 297 286 281 284 289 293 295 291 286 283 281 280 279 277 272 266 261 254 247 242 240 238 237 237 237 237
248 251 255 259 262 263 264 265 273 276 274 273 274 276 280 285 289 291 291 295 300 304 303 297 284 278 282 287 291 292 292 290 287 284 281 278 276 274 269 261 257 254 249 243 240 239 237 238 239
Height
5889 5890 5891 5892 5893 5893 5891 5891 5889 5888 5887 5887 5887 5887 5888 5888 5888 5890 5888 5886 5886 5885 5884 5883 5882 5881 5880 5878 5877 5875 5874 5874 5873 5872 5871 5870 5869 5868 5868 5867 5867 5867 5867 5867 5868 5870 5872 5875 5877
5890 5891 5892 5893 5893 5893 5893 5891 5889 5889 5888 5887 5886 5886 5886 5886 5886 5886 5886 5886 5886 5885 5884 5883 5882 5881 5880 5878 5876 5874 5873 5873 5873 5872 5870 5869 5868 5867 5867 5867 5867 5867 5867 5868 5869 5870 5872 5874 5876
5890 5892 5893 5894 5893 5894 5894 5892 5890 5889 5888 5886 5886 5885 5886 5885 5885 5885 5885 5885 5885 5884 5883 5882 5881 5880 5879 5877 5875 5874 5873 5872 5871 5871 5870 5869 5868 5867 5866 5866 5867 5867 5867 5868 5869 5871 5872 5873 5876
5891 5893 5894 5894 5893 5893 5893 5892 5891 5889 5888 5886 5885 5885 5885 5884 5884 5884 5884 5884 5884 5883 5882 5881 5880 5879 5878 5876 5874 5873 5872 5871 5870 5870 5869 5868 5867 5866 5865 5865 5866 5866 5867 5868 5869 5870 5871 5872 5875
5892 5893 5894 5893 5893 5893 5892 5891 5890 5888 5887 5885 5884 5884 5884 5883 5883 5883 5883 5883 5883 5882 5881 5880 5879 5878 5876 5875 5873 5872 5870 5870 5869 5869 5868 5867 5866 5866 5865 5865 5865 5865 5866 5867 5868 5869 5870 5871 5873
5893 5893 5894 5893 5892 5892 5892 5891 5889 5887 5886 5884 5883 5883 5882 5882 5882 5882 5882 5882 5882 5882 5881 5880 5878 5877 5875 5873 5872 5870 5869 5868 5868 5867 5866 5865 5865 5865 5864 5864 5864 5864 5865 5866 5867 5867 5868 5870 5872
5893 5893 5893 5893 5892 5892 5892 5891 5890 5888 5885 5884 5882 5881 5881 5880 5880 5880 5881 5881 5881 5881 5880 5879 5877 5875 5873 5871 5870 5869 5868 5866 5866 5865 5864 5863 5863 5863 5862 5862 5862 5862 5863 5864 5864 5865 5866 5868 5870
5891 5893 5892 5892 5892 5892 5892 5891 5890 5889 5886 5884 5881 5880 5879 5878 5878 5879 5879 5880 5880 5880 5879 5877 5875 5872 5871 5869 5868 5867 5866 5865 5864 5862 5861 5861 5861 5860 5860 5860 5860 5860 5860 5861 5862 5863 5864 5866 5868
5890 5892 5891 5891 5891 5891 5890 5889 5889 5888 5887 5884 5881 5879 5878 5877 5876 5877 5878 5878 5878 5878 5876 5874 5872 5870 5868 5867 5866 5865 5863 5862 5861 5860 5859 5859 5858 5858 5858 5858 5857 5858 5858 5859 5859 5860 5862 5864 5866
5888 5890 5890 5890 5890 5889 5889 5888 5887 5886 5885 5883 5881 5879 5877 5876 5876 5876 5876 5876 5876 5875 5874 5872 5870 5868 5866 5864 5863 5862 5861 5859 5859 5858 5857 5856 5855 5855 5855 5855 5855 5856 5856 5857 5857 5859 5860 5862 5863
5886 5887 5888 5888 5887 5887 5887 5886 5885 5884 5883 5882 5880 5878 5876 5876 5875 5875 5875 5874 5874 5873 5871 5869 5867 5865 5863 5861 5860 5859 5858 5856 5856 5855 5854 5853 5852 5852 5853 5853 5853 5854 5854 5855 5855 5857 5858 5859 5860
5883 5884 5885 5885 5885 5885 5884 5883 5882 5882 5882 5880 5878 5877 5876 5875 5874 5874 5873 5872 5871 5870 5868 5866 5864 5862 5860 5858 5857 5856 5854 5853 5852 5852 5851 5850 5850 5850 5851 5851 5852 5852 5853 5853 5854 5855 5856 5857 5858
5879 5881 5882 5882 5882 5882 5882 5881 5880 5880 5880 5878 5877 5875 5874 5874 5873 5872 5871 5870 5868 5867 5865 5863 5861 5859 5857 5855 5853 5852 5851 5850 5849 5848 5847 5847 5847 5847 5848 5849 5850 5850 5851 5852 5853 5853 5854 5856 5856
5876 5877 5879 5879 5879 5879 5879 5879 5878 5877 5877 5876 5875 5874 5872 5872 5872 5871 5869 5868 5866 5864 5862 5859 5857 5855 5853 5851 5849 5848 5847 5846 5845 5845 5845 5844 5844 5844 5846 5847 5847 5848 5849 5851 5852 5852 5853 5854 5855
5871 5874 5875 5876 5876 5876 5876 5876 5874 5873 5873 5873 5872 5871 5870 5869 5869 5868 5867 5865 5863 5861 5859 5856 5854 5852 5849 5847 5846 5845 5844 5843 5842 5842 5842 5842 5842 5842 5843 5844 5845 5846 5847 5849 5850 5851 5851 5852 5853
5867 5870 5871 5872 5872 5871 5873 5872 5870 5869 5869 5869 5869 5868 5867 5866 5865 5864 5863 5861 5860 5858 5855 5853 5850 5848 5846 5844 5843 5841 5841 5840 5839 5838 5838 5839 5839 5839 5840 5841 5842 5843 5844 5846 5848 5849 5850 5851 5852
5862 5864 5866 5867 5866 5866 5866 5867 5866 5864 5865 5865 5865 5864 5863 5861 5861 5860 5859 5857 5856 5854 5852 5849 5847 5845 5843 5841 5839 5838 5838 5837 5836 5835 5835 5835 5836 5836 5837 5838 5840 5841 5842 5844 5846 5847 5849 5849 5850
5857 5859 5861 5862 5861 5861 5861 5862 5862 5861 5860 5861 5861 5860 5859 5857 5856 5855 5854 5853 5851 5849 5847 5845 5843 5841 5839 5837 5835 5835 5834 5833 5833 5832 5831 5832 5832 5833 5834 5835 5837 5838 5840 5841 5843 5845 5847 5848 5849
5851 5853 5855 5856 5855 5855 5856 5857 5857 5857 5856 5856 5856 5855 5854 5853 5852 5850 5849 5848 5846 5845 5843 5840 5838 5837 5835 5833 5832 5831 5830 5829 5829 5828 5828 5828 5829 5829 5830 5831 5833 5835 5836 5838 5840 5842 5844 5845 5847
5845 5847 5848 5849 5848 5848 5850 5851 5852 5852 5851 5851 5850 5849 5849 5848 5847 5846 5844 5843 5841 5840 5838 5836 5834 5832 5830 5829 5828 5827 5826 5825 5825 5824 5823 5823 5824 5825 5826 5827 5828 5830 5832 5835 5836 5839 5841 5843 5845
5839 5840 5841 5842 5842 5842 5844 5846 5846 5846 5845 5845 5845 5843 5842 5842 5841 5840 5839 5838 5836 5834 5832 5830 5828 5826 5825 5823 5822 5822 5821 5821 5820 5819 5819 5819 5819 5819 5820 5821 5822 5824 5827 5830 5832 5835 5838 5840 5842
5833 5833 5834 5835 5835 5837 5839 5840 5842 5840 5840 5839 5839 5838 5837 5836 5835 5835 5833 5832 5830 5828 5826 5824 5822 5820 5818 5817 5816 5815 5815 5814 5814 5814 5814 5813 5813 5813 5813 5814 5816 5819 5822 5825 5828 5831 5834 5836 5839
5826 5826 5827 5828 5829 5831 5832 5833 5837 5835 5834 5834 5833 5832 5831 5831 5830 5829 5828 5826 5824 5823 5821 5818 5816 5814 5812 5811 5809 5808 5807 5807 5807 5807 5808 5807 5807 5806 5806 5808 5810 5813 5816 5819 5823 5827 5829 5832 5835
5818 5819 5820 5821 5823 5826 5828 5828 5829 5829 5828 5828 5827 5827 5826 5826 5825 5823 5822 5820 5819 5817 5814 5812 5809 5807 5805 5804 5802 5801 5800 5800 5800 5800 5801 5801 5800 5800 5800 5801 5804 5807 5810 5813 5817 5821 5824 5827 5830
5813 5814 5815 5816 5817 5820 5821 5822 5823 5823 5822 5822 5822 5821 5821 5820 5819 5818 5816 5814 5812 5810 5807 5805 5802 5800 5799 5797 5796 5795 5795 5794 5794 5794 5794 5794 5794 5794 5794 5795 5798 5800 5803 5806 5810 5814 5817 5821 5824
5807 5808 5810 5811 5812 5813 5814 5815 5817 5817 5817 5817 5817 5816 5816 5815 5814 5812 5810 5808 5806 5803 5801 5798 5796 5794 5793 5791 5790 5790 5790 5789 5789 5788 5788 5788 5788 5788 5789 5789 5791 5793 5796 5800 5803 5807 5811 5814 5818
5801 5803 5804 5805 5805 5807 5808 5810 5811 5811 5811 5811 5811 5811 5810 5809 5808 5806 5805 5803 5800 5798 5795 5793 5791 5789 5787 5786 5785 5785 5784 5784 5784 5784 5783 5783 5783 5784 5785 5785 5786 5787 5790 5794 5797 5801 5805 5808 5811
5796 5797 5798 5799 5799 5800 5802 5804 5805 5805 5805 5805 5805 5804 5803 5802 5801 5800 5799 5797 5795 5793 5790 5788 5786 5784 5783 5782 5781 5780 5780 5780 5779 5779 5779 5778 5779 5779 5780 5781 5782 5783 5785 5788 5792 5795 5798 5801 5804
5791 5792 5792 5793 5794 5795 5796 5801 5800 5800 5799 5799 5798 5797 5797 5796 5796 5794 5793 5791 5789 5787 5785 5783 5781 5780 5779 5778 5777 5776 5775 5775 5775 5774 5774 5774 5773 5774 5775 5776 5777 5779 5781 5783 5785 5788 5791 5794 5797
5786 5787 5788 5789 5788 5789 5790 5796 5794 5795 5793 5793 5792 5791 5791 5791 5790 5789 5787 5785 5783 5781 5779 5777 5775 5775 5774 5773 5772 5771 5770 5770 5770 5769 5769 5769 5768 5768 5769 5771 5772 5773 5775 5776 5778 5781 5784 5787 5790